Fort Worth, TX

9:47 PM CDT on October 23, 2017 (GMT -0500)
Fort Worth Meacham International

Weather History for KFTW - September, 2013

Change the Weather History Date:

Wednesday, September 25, 2013

  Actual Average Record
Temperature  
Mean Temperature 76 °F -  
Max Temperature 93 °F 84 °F 102 °F (2005)
Min Temperature 60 °F 61 °F 48 °F (2000)
Cooling Degree Days 12    
Growing Degree Days 26 (Base 50)    
Moisture  
Dew Point 55 °F    
Average Humidity 53    
Maximum Humidity 90    
Minimum Humidity 25    
Precipitation  
Precipitation 0.00 in - - ()
Sea Level Pressure  
Sea Level Pressure 29.82 in    
Wind  
Wind Speed 2 mph (South)    
Max Wind Speed 12 mph    
Max Gust Speed -    
Visibility 9 miles    
Events      
Averages and records for this station are not official NWS values.
T = Trace of Precipitation, MM = Missing Value Source: NWS Daily Summary

Daily Weather History Graph

Daily Weather History Graph

Search for Another Location

Airport or City:

Trip Planner

Search our weather history database for the weather conditions in past years. The results will help you decide how hot, cold, wet, or windy it might be!

Date:

Astronomy

Sep. 25, 2013 Rise Set
Actual Time 7:19 AM CDT 7:21 PM CDT
Civil Twilight 6:55 AM CDT 7:46 PM CDT
Nautical Twilight 6:26 AM CDT 8:14 PM CDT
Astronomical Twilight 5:57 AM CDT 8:43 PM CDT
Moon 11:45 PM CDT (9/25) 1:09 PM CDT (9/25)
Length of Visible Light 12h 51m
Length of Day
12h 01m
Waning Gibbous, 64% of the Moon is Illuminated
Sep 25
Waning Gibbous
Sep 26
Last Quarter
Oct 4
New
Oct 11
First Quarter
Oct 18
Full

Hourly Weather History & Observations

Time (CDT) Temp. Heat Index Dew Point Humidity Pressure Visibility Wind Dir Wind Speed Gust Speed Precip Events Conditions
12:53 AM 64.9 °F - 55.0 °F 70% 29.86 in 10.0 mi Calm Calm - N/A   Clear
1:53 AM 63.0 °F - 55.9 °F 78% 29.85 in 10.0 mi South 3.5 mph - N/A   Clear
2:53 AM 63.0 °F - 57.0 °F 81% 29.86 in 10.0 mi Calm Calm - N/A   Clear
3:53 AM 64.9 °F - 57.9 °F 78% 29.85 in 10.0 mi Calm Calm - N/A   Clear
4:53 AM 60.1 °F - 57.0 °F 90% 29.85 in 10.0 mi Calm Calm - N/A   Clear
5:05 AM 64.4 °F - 57.2 °F 77% 29.87 in 1.5 mi Calm Calm - N/A   Clear
5:12 AM 62.6 °F - 57.2 °F 82% 29.87 in 10.0 mi Calm Calm - N/A   Clear
5:53 AM 61.0 °F - 57.9 °F 90% 29.85 in 10.0 mi Calm Calm - N/A   Clear
6:53 AM 61.0 °F - 55.9 °F 83% 29.86 in 4.0 mi Calm Calm - N/A   Haze
7:53 AM 61.0 °F - 57.0 °F 87% 29.86 in 10.0 mi Calm Calm - N/A   Clear
8:53 AM 68.0 °F - 61.0 °F 78% 29.88 in 9.0 mi Calm Calm - N/A   Clear
9:53 AM 75.9 °F - 54.0 °F 46% 29.88 in 9.0 mi Calm Calm - N/A   Clear
10:53 AM 80.1 °F - 52.0 °F 38% 29.89 in 10.0 mi South 5.8 mph - N/A   Clear
11:53 AM 84.9 °F 83.2 °F 53.1 °F 33% 29.88 in 10.0 mi South 6.9 mph - N/A   Clear
12:53 PM 88.0 °F - 51.1 °F 28% 29.85 in 10.0 mi Variable 4.6 mph - N/A   Clear
1:53 PM 91.0 °F - 51.1 °F 25% 29.82 in 2.5 mi Calm Calm - N/A   Haze
2:00 PM 91.4 °F - 51.8 °F 26% 29.84 in 10.0 mi SW 8.1 mph - N/A   Clear
2:53 PM 90.0 °F - 50.0 °F 25% 29.78 in 10.0 mi Variable 3.5 mph - N/A   Clear
3:53 PM 93.0 °F - 52.0 °F 25% 29.76 in 10.0 mi South 9.2 mph - N/A   Clear
4:53 PM 91.9 °F 89.5 °F 53.1 °F 27% 29.75 in 10.0 mi Variable 3.5 mph - N/A   Clear
5:53 PM 91.0 °F - 52.0 °F 26% 29.75 in 10.0 mi WSW 5.8 mph - N/A   Clear
6:53 PM 88.0 °F 86.1 °F 55.0 °F 32% 29.75 in 10.0 mi Calm Calm - N/A   Clear
7:53 PM 82.9 °F 81.9 °F 54.0 °F 37% 29.75 in 10.0 mi SE 5.8 mph - N/A   Clear
8:53 PM 80.1 °F 80.1 °F 55.0 °F 42% 29.76 in 10.0 mi SE 6.9 mph - N/A   Clear
9:53 PM 78.1 °F - 54.0 °F 43% 29.77 in 10.0 mi SE 6.9 mph - N/A   Clear
10:53 PM 77.0 °F - 54.0 °F 45% 29.78 in 10.0 mi SE 8.1 mph - N/A   Clear
11:53 PM 75.9 °F - 52.0 °F 43% 29.77 in 10.0 mi SE 11.5 mph - N/A   Clear